This demonstration page uses our WeatherBlox Daily Observations layout. Learn more.

Left ArrowRight Arrow

Hourly Observations for December 15, 2020

Temp ( °F °C ) Dew Point ( °F °C ) Humidity (%) Winds ( mph kmh ) Pressure ( in mb ) Visibility ( mi km ) Precip ( " mm )
12:15 am 00:15 Cloudy 26 -3.5 23 -5 89 89 E 10 17 30.25 1024 10 16.0934 0 0
12:35 am 00:35 Cloudy 26 -3.5 23 -5 89 89 E 12 19 30.24 1024 10 16.0934 0 0
12:55 am 00:55 Cloudy 26 -3.5 23 -5 89 89 E 12 19 30.23 1024 10 16.0934 0 0
1:15 am 01:15 Cloudy 26 -3.5 23 -5 89 89 E 10 17 30.23 1024 10 16.0934 0 0
1:35 am 01:35 Cloudy 26 -3.6 23 -5.1 89 89 E 12 19 30.23 1024 10 16.0934 0 0
1:55 am 01:55 Cloudy 26 -3.6 23 -5 90 90 E 14 22 30.22 1023 10 16.0934 0 0
2:15 am 02:15 Cloudy 24 -4.5 21 -6 89 89 ENE 9 15 30.23 1024 10 16.0934 0 0
2:35 am 02:35 Cloudy 23 -5.2 21 -6.2 93 93 E 10 17 30.24 1024 10 16.0934 0 0
2:55 am 02:55 Cloudy 23 -5.2 21 -6.1 93 93 E 8 13 30.24 1024 10 16.0934 0 0
3:15 am 03:15 Cloudy 23 -5.1 21 -6 93 93 E 9 15 30.24 1024 10 16.0934 0 0
3:35 am 03:35 Cloudy 23 -5 22 -5.8 94 94 E 9 15 30.22 1023 10 16.0934 0 0
3:55 am 03:55 Cloudy with Light Snow 23 -4.8 22 -5.7 94 94 E 13 20 30.21 1023 7 11.26538 0 0
4:15 am 04:15 Cloudy with Light Snow 23 -5 21 -6 93 93 E 12 19 30.21 1023 2.5 4.02335 0 0
4:35 am 04:35 Cloudy with Light Snow 23 -5.1 21 -6 93 93 E 12 19 30.21 1023 2 3.21868 0 0
4:55 am 04:55 Cloudy with Light Snow 23 -4.8 22 -5.7 94 94 E 13 20 30.2 1023 3 4.82802 0 0
5:15 am 05:15 Cloudy with Mist and Fog 24 -4.6 22 -5.5 94 94 ESE 14 22 30.2 1023 5 8.0467 0 0
5:35 am 05:35 Cloudy 24 -4.5 22 -5.5 93 93 ESE 13 20 30.21 1023 7 11.26538 0 0
5:55 am 05:55 Cloudy 24 -4.5 22 -5.5 93 93 ESE 13 20 30.21 1023 7 11.26538 0 0
6:15 am 06:15 Cloudy with Light Snow 24 -4.6 22 -5.6 93 93 ESE 13 20 30.21 1023 4 6.43736 0 0
6:35 am 06:35 Cloudy with Light Snow 24 -4.7 22 -5.7 93 93 ESE 12 19 30.21 1023 3 4.82802 0 0
6:55 am 06:55 Cloudy with Light Snow 24 -4.7 22 -5.7 93 93 ESE 13 20 30.22 1023 3 4.82802 0 0
7:15 am 07:15 Cloudy with Light Snow 23 -4.8 22 -5.8 93 93 ESE 12 19 30.22 1023 1.75 2.816345 0 0
7:35 am 07:35 Cloudy with Light Snow 23 -4.8 22 -5.8 93 93 ESE 9 15 30.23 1024 2 3.21868 0 0
7:55 am 07:55 Cloudy with Light Snow 23 -5 21 -6 93 93 ESE 8 13 30.23 1024 1.5 2.41401 0 0
8:15 am 08:15 Cloudy with Light Snow 23 -5 21 -6 93 93 ESE 8 13 30.23 1024 0.75 1.207005 0 0
8:35 am 08:35 Cloudy with Light Snow 23 -5 21 -6 93 93 ESE 8 13 30.23 1024 1.5 2.41401 0.01 0.254
8:55 am 08:55 Cloudy 23 -5 21 -6 93 93 SE 9 15 30.23 1024 10 16.0934 0.01 0.254
9:15 am 09:15 Cloudy 23 -5 21 -6.1 92 92 SE 8 13 30.24 1024 10 16.0934 0 0
9:35 am 09:35 Cloudy 23 -4.9 21 -6.1 91 91 ESE 6 9 30.25 1024 7 11.26538 0 0
9:55 am 09:55 Cloudy 23 -4.8 21 -6.1 91 91 ESE 6 9 30.25 1024 7 11.26538 0 0
10:15 am 10:15 Cloudy 23 -4.9 21 -6.1 91 91 ESE 7 11 30.26 1025 10 16.0934 0 0
10:35 am 10:35 Cloudy 23 -4.8 21 -6.1 91 91 E 7 11 30.26 1025 10 16.0934 0 0
10:55 am 10:55 Cloudy 23 -4.8 21 -6.2 90 90 E 7 11 30.26 1025 10 16.0934 0 0
11:15 am 11:15 Cloudy 24 -4.6 21 -6.1 89 89 ENE 5 7 30.26 1025 10 16.0934 0 0
11:35 am 11:35 Cloudy 24 -4.6 21 -6.1 89 89 NE 3 6 30.25 1024 10 16.0934 0 0
11:55 am 11:55 Cloudy 24 -4.6 21 -6.1 89 89 ENE 5 7 30.24 1024 10 16.0934 0 0
12:15 pm 12:15 Cloudy 24 -4.7 21 -6.1 90 90 ENE 5 7 30.23 1024 7 11.26538 0 0
12:35 pm 12:35 Cloudy 24 -4.6 21 -6.1 89 89 NE 6 9 30.23 1024 10 16.0934 0 0
12:55 pm 12:55 Cloudy 24 -4.6 21 -6.1 89 89 NE 6 9 30.22 1023 10 16.0934 0 0
1:15 pm 13:15 Cloudy 24 -4.6 21 -6.1 89 89 NE 5 7 30.22 1023 7 11.26538 0 0
1:35 pm 13:35 Cloudy 24 -4.5 21 -6 89 89 NE 3 6 30.21 1023 10 16.0934 0 0
1:55 pm 13:55 Cloudy 24 -4.2 21 -5.9 88 88 NE 5 7 30.2 1023 10 16.0934 0 0
2:15 pm 14:15 Cloudy 24 -4.4 21 -6 89 89 NE 3 6 30.19 1022 7 11.26538 0 0
2:35 pm 14:35 Cloudy 24 -4.5 21 -6 89 89 NE 3 6 30.19 1022 10 16.0934 0 0
2:55 pm 14:55 Cloudy 24 -4.5 21 -6 89 89 ENE 5 7 30.19 1022 7 11.26538 0 0
3:15 pm 15:15 Cloudy 24 -4.5 21 -6 89 89 NE 5 7 30.18 1022 7 11.26538 0 0
3:35 pm 15:35 Cloudy with Light Snow 24 -4.5 21 -6 89 89 ENE 3 6 30.18 1022 5 8.0467 0 0
3:55 pm 15:55 Cloudy with Light Snow 24 -4.6 21 -6 90 90 Calm 30.19 1022 5 8.0467 0 0
4:15 pm 16:15 Cloudy with Light Snow 24 -4.6 21 -6 90 90 Calm 30.19 1022 1.75 2.816345 0 0
4:35 pm 16:35 Cloudy with Light Snow 24 -4.7 21 -6 91 91 Calm 30.19 1022 2 3.21868 0 0
4:55 pm 16:55 Cloudy with Light Snow 24 -4.7 21 -6 91 91 Calm 30.19 1022 2 3.21868 0 0
5:15 pm 17:15 Cloudy with Light Snow 23 -5 21 -6 93 93 Calm 30.2 1023 3 4.82802 0 0
5:35 pm 17:35 Cloudy with Light Snow 23 -4.8 21 -6 91 91 Calm 30.2 1023 4 6.43736 0 0
5:55 pm 17:55 Cloudy with Light Snow 23 -5 21 -6.1 92 92 Calm 30.19 1022 5 8.0467 0 0
6:15 pm 18:15 Cloudy with Light Snow 23 -5.1 21 -6.1 93 93 Calm 30.2 1023 5 8.0467 0 0
6:35 pm 18:35 Cloudy with Light Snow 23 -5 21 -6 93 93 Calm 30.19 1022 4 6.43736 0 0
6:55 pm 18:55 Cloudy with Light Snow 23 -5 21 -6 93 93 Calm 30.2 1023 5 8.0467 0 0
7:15 pm 19:15 Cloudy with Light Snow 23 -5 21 -6.1 92 92 Calm 30.2 1023 7 11.26538 0 0
7:35 pm 19:35 Cloudy with Light Snow 23 -5 21 -6 93 93 Calm 30.2 1023 7 11.26538 0 0
7:55 pm 19:55 Cloudy 23 -5 21 -6 93 93 Calm 30.2 1023 7 11.26538 0 0
8:15 pm 20:15 Cloudy with Light Snow 23 -5 21 -6 93 93 Calm 30.19 1022 5 8.0467 0 0
8:35 pm 20:35 Cloudy with Light Snow 23 -5 21 -6 93 93 Calm 30.18 1022 5 8.0467 0 0
8:55 pm 20:55 Cloudy with Light Snow 23 -5.1 21 -6.1 93 93 WNW 3 6 30.19 1023 4 6.43736 0 0
9:15 pm 21:15 Cloudy with Light Snow 23 -5 21 -6 93 93 Calm 30.18 1022 5 8.0467 0 0
9:35 pm 21:35 Cloudy with Light Snow 23 -5.2 21 -6.1 93 93 Calm 30.19 1022 2 3.21868 0 0
9:55 pm 21:55 Cloudy 22 -5.5 21 -6.3 94 94 Calm 30.18 1022 7 11.26538 0 0
10:15 pm 22:15 Mostly Cloudy with Mist and Fog 21 -6.1 19 -7 93 93 W 5 7 30.17 1022 5 8.0467 0 0
10:35 pm 22:35 Clear with Mist and Fog 18 -7.6 17 -8.6 93 93 W 3 6 30.19 1022 3 4.82802 0 0
10:55 pm 22:55 Clear with Mist and Fog 19 -7.5 17 -8.5 93 93 Calm 30.19 1022 2 3.21868 0 0
11:15 pm 23:15 Mostly Cloudy with Freezing Fog 18 -7.9 16 -8.9 93 93 Calm 30.19 1022 0.5 0.80467 0 0
11:35 pm 23:35 Cloudy with Freezing Fog 10 -12.3 7 -13.7 89 89 Calm 30.23 1024 N/A 0 0
11:55 pm 23:55 Cloudy with Freezing Fog 8 -13.2 6 -14.7 89 89 Calm 30.24 1024 0.25 0.402335 0 0

Powered by AerisWeather